RH
68 68 69 75 80 82 82 82 82 82 82 82 82 82 82 82 82 81 80 78 76 74 72 68 65 62 60 59 60 61 64 67 69 71 72 72 73 73 72 69 67 64 61 58 54 51 48 46 45 44 42 42 42 41 41 40 40 39 38 37 36 35 34 33 32 30 29 28 26 25 24 23 22 21 20 19 18 17 16 15 14 13 13 12 11 10
67 66 67 72 77 82 82 82 82 83 84 83 83 82 82 82 81 80 78 76 74 72 69 65 62 60 60 60 62 66 69 71 72 72 72 71 70 70 68 65 62 59 56 52 49 46 44 43 42 42 41 41 40 40 40 40 39 38 37 36 34 34 32 31 30 28 27 26 25 23 22 21 20 19 18 17 16 15 14 13 12 11 10 10 9 8
66 66 67 72 77 81 82 83 83 82 83 82 82 82 82 81 79 78 76 74 72 69 66 62 60 60 61 64 67 70 71 72 71 71 70 69 68 66 64 60 57 53 50 47 44 43 42 41 40 40 40 40 39 39 38 38 37 36 35 34 32 31 30 28 27 26 25 23 22 21 20 19 18 17 15 14 13 12 11 10 9 9 8 7 7 7
68 69 72 77 81 83 82 83 83 83 82 82 82 81 80 78 77 75 73 70 68 65 62 60 60 62 66 68 70 71 72 71 70 70 68 67 64 61 58 54 50 47 44 42 40 40 39 39 38 38 38 38 38 37 36 36 34 33 32 31 29 28 26 25 24 23 22 20 19 18 17 16 15 13 12 11 10 9 9 8 7 7 6 6 6 5
72 75 79 81 83 84 83 83 82 82 82 81 80 78 76 75 73 71 68 66 64 62 61 62 65 68 71 72 73 73 72 71 69 68 65 62 58 54 50 46 43 41 39 38 37 37 36 36 36 36 36 35 35 34 33 32 31 30 28 27 26 24 23 22 21 19 18 17 16 15 14 12 11 10 10 9 8 7 7 6 6 6 6 5 5 5
79 82 83 83 83 83 83 82 82 81 80 78 77 76 74 72 69 66 64 63 63 65 67 70 72 74 74 74 73 72 70 67 64 61 57 52 48 44 41 39 37 36 35 34 34 34 33 33 32 32 32 32 31 30 29 28 27 26 24 23 22 21 19 18 17 16 15 13 12 11 10 10 9 8 7 7 6 6 6 6 6 5 5 5 5 6
83 84 83 83 82 82 81 80 79 78 77 76 74 72 70 68 66 64 63 65 68 71 74 74 75 74 73 71 68 65 62 58 54 50 45 42 38 36 34 32 32 31 30 30 29 29 29 28 28 27 27 26 26 25 24 23 22 21 20 19 18 17 16 14 13 12 11 10 9 9 8 7 7 6 6 6 6 6 6 5 5 5 6 7 8 9
83 82 82 82 81 80 79 78 76 75 74 72 70 68 66 65 64 64 65 68 70 73 74 73 71 69 66 62 58 54 50 45 42 38 35 32 30 29 27 26 26 25 25 24 24 24 23 23 22 22 22 21 21 20 19 18 18 17 16 15 14 13 12 11 10 9 8 8 7 7 6 6 6 6 6 6 6 6 5 6 6 8 9 11 12 13
82 81 80 80 79 78 76 74 72 70 69 68 66 65 64 64 65 66 68 69 69 69 68 64 61 57 53 48 44 40 36 34 31 28 26 25 23 22 21 21 20 19 19 19 18 18 18 18 17 17 17 17 16 16 15 14 14 13 12 11 10 10 9 8 8 7 7 6 6 6 6 6 6 6 6 6 6 6 6 8 10 13 15 16 17 16
80 80 79 77 74 72 70 67 66 66 66 65 64 64 64 66 66 66 67 66 63 59 55 50 46 42 38 35 32 29 26 24 22 20 19 18 17 17 16 15 15 15 14 14 14 14 14 13 13 13 13 13 13 12 11 11 10 10 9 9 8 7 7 7 6 6 6 5 5 5 6 6 6 6 6 6 6 8 10 13 16 18 19 19 19 18
78 77 74 71 67 64 63 63 64 65 66 66 65 65 64 64 63 61 58 54 49 44 39 35 31 28 26 24 22 20 19 17 15 14 13 13 12 12 12 11 11 11 11 11 11 11 11 11 10 10 10 10 10 9 9 9 8 8 7 7 6 6 6 6 5 5 5 5 6 6 6 6 6 6 6 7 9 12 16 19 20 21 21 20 19 18
74 70 66 63 62 62 64 65 66 66 66 66 65 63 60 57 52 48 42 38 32 28 24 21 19 18 17 16 15 14 13 12 11 10 10 9 9 9 9 8 8 8 8 8 9 9 9 9 9 8 8 8 8 8 7 7 7 6 6 6 6 5 5 5 5 5 5 6 6 6 6 6 6 7 8 11 15 18 21 22 22 22 21 21 20 20
66 64 62 63 64 66 66 66 66 65 64 61 58 54 49 43 37 31 26 22 18 16 14 13 12 11 11 11 10 10 9 8 7 7 7 7 7 7 7 7 7 7 7 7 7 7 7 7 7 7 7 7 7 6 6 6 6 5 5 5 5 5 5 5 5 6 6 7 7 6 6 6 8 10 14 17 21 23 24 23 22 22 22 22 21 21
64 64 65 66 66 65 64 63 62 59 55 50 44 37 31 26 21 17 14 12 10 9 8 8 7 7 7 7 7 6 6 6 5 5 5 5 6 6 6 6 6 6 6 6 6 6 6 6 6 6 6 6 6 6 5 5 5 5 5 5 5 5 6 6 7 7 7 7 6 6 7 9 12 16 20 22 24 24 24 23 23 23 24 23 23 22
67 67 67 66 64 62 60 57 52 46 40 32 26 20 16 13 11 9 8 7 7 6 6 5 5 5 5 5 5 5 5 5 4 4 4 5 5 5 5 5 5 5 6 6 6 6 6 6 5 5 5 5 5 5 5 5 5 5 5 5 6 7 7 8 8 7 7 7 7 9 11 14 18 21 24 25 24 24 23 23 24 25 25 25 25 24
67 66 64 62 58 54 49 42 34 27 21 16 13 10 9 8 7 6 6 5 5 5 5 5 5 5 4 4 4 4 4 4 4 4 5 5 5 5 5 5 5 5 5 5 5 5 5 5 5 5 5 5 5 5 5 5 5 6 7 7 8 9 9 8 8 7 7 8 10 13 17 20 23 25 25 25 24 23 23 24 26 27 27 27 26 26
64 60 57 51 45 37 30 22 17 12 10 9 8 7 6 6 5 5 5 5 5 4 4 4 4 4 5 5 5 5 4 5 5 5 5 5 5 5 5 5 5 5 5 5 5 4 4 4 4 4 4 5 5 6 6 7 8 9 10 10 10 10 9 8 8 9 10 12 16 19 23 25 26 26 25 24 24 24 25 26 27 28 29 29 29 28
54 48 40 32 25 19 14 11 9 8 7 6 6 5 5 5 5 4 4 4 4 4 4 4 4 4 5 5 5 5 5 5 5 5 5 5 5 4 4 4 4 4 4 4 4 4 4 4 4 5 6 7 9 10 11 12 12 12 12 11 10 10 9 9 10 12 15 18 22 24 26 26 26 25 25 24 24 25 26 27 29 30 31 31 31 31
36 29 21 15 12 9 8 7 7 6 6 5 5 5 5 4 4 4 4 4 4 4 4 4 4 4 5 5 5 5 5 5 4 4 4 4 4 4 4 4 3 3 3 3 4 4 4 6 7 9 12 14 15 16 15 15 14 13 12 11 10 10 11 12 15 18 22 24 26 27 27 26 26 25 24 25 25 26 27 29 30 32 32 33 33 33
18 14 10 9 8 7 6 6 6 5 5 5 4 4 4 4 4 4 4 4 4 4 4 4 4 5 5 5 5 5 4 4 4 4 4 3 3 3 3 3 3 3 3 4 5 6 9 11 15 18 20 20 19 18 16 15 13 12 11 11 11 13 15 18 21 24 27 28 28 28 26 26 25 25 25 26 26 28 29 30 31 32 34 34 35 36
10 9 8 7 6 6 5 5 5 5 4 4 4 4 4 4 4 4 4 4 4 4 4 5 5 5 5 4 4 4 4 4 3 3 3 3 3 3 3 3 3 4 5 7 10 13 17 19 22 23 22 21 19 17 15 13 12 12 11 12 15 17 21 24 27 29 29 29 28 27 26 26 26 26 26 27 28 29 30 32 32 34 35 36 37 37
8 7 7 6 5 5 5 4 4 4 4 4 4 3 3 4 4 4 4 4 4 5 5 5 5 4 4 4 4 4 3 3 3 2 2 2 3 3 4 5 6 8 10 14 18 21 23 24 23 22 21 19 17 15 14 13 13 13 14 17 20 23 26 29 30 30 30 29 28 27 26 27 27 28 28 29 30 32 32 34 34 35 36 37 38 39
7 6 6 5 5 4 4 4 4 4 4 4 4 4 4 4 4 4 5 5 5 5 5 5 4 4 4 3 3 3 3 3 2 2 2 3 4 5 7 10 12 14 17 20 22 23 23 22 21 20 18 17 16 15 15 15 16 17 19 22 25 28 30 31 31 31 30 29 28 28 29 29 30 31 31 32 33 34 35 36 36 36 36 37 38 40
6 5 5 4 4 4 4 4 4 4 4 4 4 4 4 4 4 5 5 5 5 4 4 4 4 3 3 3 3 2 2 3 3 3 4 5 7 9 13 16 18 19 21 22 22 21 21 20 19 18 18 17 17 18 18 19 21 23 25 27 29 31 32 32 31 31 30 30 31 31 32 32 33 34 35 36 36 37 38 38 38 37 37 38 39 40
5 5 4 4 4 4 4 4 4 4 4 4 4 4 4 5 5 5 5 4 4 4 4 3 3 3 3 3 3 3 3 4 5 6 7 9 12 15 18 20 20 20 21 21 20 19 19 18 18 18 19 19 21 22 23 25 27 29 30 32 32 33 32 32 32 31 32 32 34 34 35 36 37 37 38 38 39 39 39 39 38 38 38 38 40 41
4 4 4 4 4 4 4 4 4 4 4 4 5 5 5 5 5 4 4 4 4 4 3 3 3 3 3 4 4 4 5 7 8 10 11 13 15 18 20 20 19 19 19 19 19 18 18 18 19 20 21 23 25 28 30 31 32 34 34 35 34 34 32 32 32 32 34 35 37 38 39 39 40 40 40 40 40 40 39 39 38 38 38 38 40 42
4 4 4 4 4 4 4 4 4 5 5 5 5 5 5 5 4 4 4 4 4 4 4 4 4 4 5 6 7 8 9 10 11 13 14 15 16 18 19 19 18 18 18 18 18 18 18 19 20 22 24 28 31 34 36 37 38 38 38 37 36 34 33 33 34 35 36 38 39 40 40 41 42 42 42 42 41 40 40 39 38 38 38 39 40 43
4 4 4 4 4 4 5 5 5 5 5 5 5 5 5 4 4 4 4 4 4 4 5 6 6 7 9 10 11 12 13 13 13 14 15 15 16 17 18 18 18 17 17 17 17 18 18 20 22 24 27 32 35 38 41 42 42 42 40 39 38 36 35 35 36 37 38 39 40 40 41 42 42 42 42 42 42 41 40 40 39 39 39 40 42 44
4 4 4 4 5 5 5 5 5 5 5 5 5 5 5 4 4 4 5 5 6 6 7 9 10 11 13 14 15 15 15 14 14 14 14 15 16 17 17 17 17 17 16 16 17 18 19 21 23 26 30 34 39 42 44 45 45 44 43 42 40 39 38 38 39 39 39 40 40 40 40 41 42 42 42 42 41 40 40 40 40 40 40 42 43 46
4 4 5 5 5 5 5 5 5 5 5 5 5 5 5 5 5 6 6 7 8 9 11 12 14 15 15 16 16 16 15 14 14 14 14 15 16 17 17 16 16 16 16 16 17 18 19 22 24 28 32 36 41 45 47 48 48 47 46 44 43 42 42 41 40 40 40 40 40 40 41 41 42 42 41 41 40 40 40 40 41 41 42 43 45 47
5 5 5 5 5 5 5 5 5 5 5 5 5 6 6 6 7 8 9 10 11 12 14 15 15 16 16 16 15 15 15 14 14 14 14 15 15 16 16 16 16 16 16 16 17 18 19 22 25 29 33 38 43 47 49 50 50 49 48 46 46 45 44 43 42 41 41 41 42 42 42 42 42 42 42 42 42 42 42 42 42 43 44 44 46 48
5 6 6 6 6 5 5 5 5 5 6 6 6 7 7 8 9 10 11 12 13 14 15 15 16 16 16 15 15 15 15 15 14 14 14 15 15 15 15 15 16 16 17 17 17 18 19 21 24 29 34 40 44 48 51 51 51 50 49 48 48 47 46 44 44 43 43 43 44 44 44 44 45 45 45 45 45 45 46 46 46 46 46 46 48 49
6 6 6 6 6 6 6 6 6 6 6 7 7 8 9 10 10 11 12 13 14 14 15 15 15 16 16 16 16 16 16 15 15 15 15 15 15 15 15 16 16 17 18 18 18 18 19 20 23 27 33 39 44 49 52 53 52 52 50 50 49 48 48 47 46 46 46 46 47 47 47 48 48 48 49 49 50 50 50 51 50 50 50 49 50 50
6 6 6 6 6 6 6 6 6 6 7 7 8 9 10 10 11 12 13 13 14 14 15 15 15 16 16 17 17 17 16 16 15 15 15 15 15 15 16 16 17 17 18 19 19 19 19 20 22 26 31 37 43 48 52 53 53 53 52 51 50 50 50 50 49 49 50 50 50 50 51 52 52 53 54 54 55 56 56 56 56 54 53 52 52 52
6 6 6 6 6 6 6 6 7 7 8 8 9 10 10 11 12 12 13 13 14 14 15 15 16 16 17 17 17 17 17 16 16 15 15 15 15 16 16 17 17 18 19 19 20 19 19 20 22 25 29 34 40 46 50 52 53 53 53 52 52 52 52 52 52 52 52 53 53 54 54 55 56 58 59 60 61 62 62 62 60 58 57 55 54 53
7 7 7 6 6 6 6 7 7 8 8 9 10 10 11 12 12 13 13 14 14 15 16 16 16 17 17 17 17 17 17 17 16 16 16 16 16 16 17 18 18 18 19 19 19 19 18 19 21 24 28 32 38 43 48 50 52 53 54 54 54 54 54 54 54 54 54 54 55 56 57 58 60 61 63 65 66 68 67 66 64 62 60 58 56 55
7 7 7 7 7 7 7 7 8 8 9 10 10 11 12 13 13 14 14 15 15 16 16 17 17 17 17 17 17 18 18 17 17 17 17 17 17 17 18 18 19 19 19 19 19 18 18 18 20 23 27 31 35 40 44 48 51 53 54 55 56 56 56 56 55 54 54 54 55 56 58 60 62 64 66 69 71 72 71 70 68 66 63 60 58 56
7 7 7 7 7 7 7 8 9 9 10 11 12 13 13 14 15 15 16 16 17 17 18 18 18 18 18 18 18 18 18 18 18 18 18 18 18 19 19 19 20 20 20 20 19 18 18 18 20 22 26 30 34 38 42 46 49 52 53 55 57 58 58 58 56 55 54 54 55 56 58 60 63 66 68 71 73 74 74 72 70 68 65 62 59 57
8 8 8 8 8 8 8 9 10 11 12 12 13 14 15 16 16 17 17 18 18 18 19 19 19 20 20 20 20 20 20 20 20 20 20 20 20 20 20 20 20 20 20 20 19 18 18 18 20 22 25 29 32 36 40 44 47 50 51 54 57 59 60 59 57 56 54 54 55 56 58 61 63 66 68 70 72 72 73 72 70 68 65 62 60 57
8 8 8 8 9 9 10 11 11 12 13 14 15 16 17 18 18 18 19 19 20 20 20 21 21 21 21 21 21 21 21 22 22 22 22 22 22 22 21 21 21 21 21 20 19 18 18 18 20 22 25 28 31 35 39 43 46 48 50 53 56 60 61 60 58 56 54 55 56 57 59 61 64 66 68 69 70 71 71 70 69 68 65 63 60 58
9 9 9 9 10 11 12 13 14 15 16 16 17 18 19 20 20 21 21 21 22 22 22 22 22 23 23 23 23 23 23 24 24 24 24 24 24 23 22 22 21 21 21 21 20 19 18 18 20 21 24 27 31 34 38 42 46 48 50 52 55 58 60 60 59 57 56 56 57 58 60 61 63 65 66 68 68 69 69 68 68 66 63 61 60 59
10 10 10 10 11 12 14 15 16 17 18 19 20 21 21 22 23 23 24 24 24 24 24 24 24 24 24 25 25 26 26 26 26 26 26 26 25 24 23 22 22 22 21 21 20 19 18 19 20 21 24 27 30 34 37 42 46 50 52 53 55 57 59 60 59 58 58 58 59 60 60 61 62 64 65 66 67 68 68 66 65 63 61 59 58 57
10 11 11 12 14 15 16 17 18 20 20 21 22 23 24 25 25 26 26 26 26 26 25 25 26 26 26 27 28 28 29 29 28 28 27 27 26 25 24 23 23 23 22 21 21 20 19 19 19 21 23 26 29 33 36 41 46 50 54 56 56 57 58 58 58 59 60 60 60 60 60 60 61 62 64 66 67 68 68 66 64 62 59 57 56 55
12 13 14 15 16 18 19 20 21 22 23 24 25 26 26 27 27 27 28 28 27 27 27 27 27 28 29 30 31 31 31 31 30 29 28 27 26 25 24 24 24 24 23 22 21 20 19 19 20 20 22 26 29 32 36 41 46 51 56 58 58 58 58 58 58 59 60 61 61 60 60 60 60 62 64 67 68 69 68 66 65 62 59 56 55 54
14 15 17 18 19 21 22 23 24 25 26 26 27 28 28 28 29 29 29 29 29 29 29 29 29 30 31 32 32 33 33 33 32 31 29 27 26 25 25 25 25 25 24 23 22 21 20 20 20 21 22 25 29 32 37 42 46 52 56 59 60 60 58 58 58 60 60 61 60 60 59 60 61 63 66 69 71 71 70 68 66 64 61 58 56 55
17 18 19 21 22 23 25 26 26 27 28 28 29 29 30 30 30 30 30 30 30 30 31 31 31 32 32 33 34 34 34 34 34 32 31 29 27 26 26 26 26 26 26 24 23 22 21 20 20 20 22 25 28 32 37 42 47 52 56 59 60 60 60 60 60 61 61 61 61 60 60 61 62 64 68 71 74 74 72 69 68 66 64 62 60 58
19 21 22 23 24 26 26 27 28 29 29 30 30 31 31 31 31 31 31 31 31 32 32 32 32 32 34 34 34 35 36 36 35 34 32 31 30 29 28 28 27 27 26 25 24 23 22 21 20 21 22 25 28 32 38 43 48 53 57 59 60 61 61 62 63 63 63 63 62 62 62 62 64 66 69 73 75 75 74 71 69 67 66 65 64 62
22 23 24 25 26 27 28 29 30 30 31 32 32 32 32 32 32 32 32 32 32 32 32 33 34 34 34 35 35 36 37 37 37 36 34 33 32 31 31 30 29 28 27 26 25 24 22 22 21 22 22 25 28 32 37 43 49 54 58 60 61 62 63 64 65 66 66 65 64 64 64 65 66 68 70 74 75 76 76 74 71 68 67 66 66 64
23 24 25 26 27 28 29 30 31 32 33 34 34 35 35 35 35 34 34 34 34 34 34 34 35 35 36 36 36 37 38 38 38 37 36 35 34 34 33 32 31 30 28 27 26 24 23 23 22 23 23 25 28 32 37 43 49 55 60 62 63 64 64 66 66 67 67 67 66 66 66 66 67 69 71 74 76 76 76 75 73 71 69 68 66 65
25 25 26 27 28 30 31 32 34 35 36 37 38 38 38 38 38 37 37 36 36 36 36 36 36 37 37 38 38 38 39 39 39 38 37 36 36 35 34 34 32 31 30 28 26 25 24 23 23 24 24 26 28 32 36 42 49 55 60 63 64 65 65 66 66 67 67 68 68 68 68 68 68 70 71 74 76 76 76 76 74 73 71 69 68 66
26 26 28 29 30 32 34 35 37 38 40 41 42 42 42 42 41 40 40 39 38 38 37 37 37 38 38 38 39 39 40 40 40 40 38 38 37 36 36 34 33 32 30 29 27 26 24 23 24 25 26 26 28 31 36 42 48 54 59 62 65 66 65 65 65 65 66 67 68 69 69 70 70 71 72 74 76 76 76 76 76 74 73 71 69 68
Wind_Speed
56 56 56 57 57 58 58 58 58 58 58 59 60 61 62 62 63 63 64 64 65 66 67 68 70 71 72 73 73 73 73 73 73 74 75 76 76 77 78 79 79 80 79 79 79 78 77 76 76 75 74 74 73 72 72 72 72 72 72 72 72 72 72 72 73 73 73 74 74 75 75 75 76 76 76 77 77 78 78 79 80 80 81 82 82 83
55 56 56 56 57 58 59 60 60 59 59 59 59 60 61 62 62 63 63 64 66 67 69 71 72 73 74 74 74 74 74 75 76 77 78 79 80 80 81 81 81 81 80 79 78 78 77 76 75 74 74 73 73 72 72 72 72 72 72 72 72 72 73 73 73 74 74 75 75 75 76 76 77 77 78 78 79 79 80 81 81 82 83 84 84 85
55 55 56 56 57 58 60 61 61 60 60 60 61 62 62 63 64 64 65 66 68 70 72 73 74 75 75 75 75 76 76 78 79 80 81 81 82 82 82 82 81 80 80 79 78 77 76 76 75 74 74 73 73 73 72 72 72 73 73 73 73 74 74 74 75 75 75 76 76 76 77 77 78 78 79 80 80 81 82 82 83 84 84 84 85 85
54 55 56 56 58 59 61 61 61 61 61 62 63 63 64 65 65 67 68 69 71 73 74 75 75 76 76 76 77 78 79 80 81 82 82 82 82 82 82 81 80 80 79 78 77 77 76 75 75 74 74 74 73 73 73 73 74 74 74 74 75 75 75 76 76 76 76 77 77 77 78 79 79 80 80 81 82 82 83 83 83 83 83 83 83 83
55 55 57 58 60 61 62 62 61 62 62 63 63 64 65 66 67 69 70 72 73 74 75 75 76 76 77 78 79 80 81 81 82 82 82 82 82 81 81 80 80 79 78 77 77 76 76 75 75 75 75 75 74 75 75 75 75 75 76 76 76 76 77 77 77 78 78 78 79 79 79 80 80 81 81 82 82 82 82 81 81 80 80 80 80 80
55 56 58 59 61 62 62 62 62 62 63 64 65 65 67 68 69 70 72 73 74 74 75 76 77 78 79 79 80 81 81 81 82 82 81 81 81 81 80 79 79 78 78 77 77 77 76 76 76 76 76 76 76 76 76 77 77 77 77 78 78 78 78 79 79 79 79 80 80 80 80 81 81 81 81 80 80 79 78 78 77 76 76 76 76 76
56 57 58 59 60 61 62 62 63 63 64 65 66 68 69 70 71 72 72 73 74 75 76 77 78 79 80 80 81 81 81 81 81 81 81 81 80 80 80 79 79 78 78 78 78 78 78 78 78 78 78 78 78 78 78 78 79 79 79 79 79 80 80 80 80 80 80 81 81 81 80 80 80 79 78 77 76 75 74 73 72 72 71 72 72 73
56 57 58 59 60 62 63 64 64 65 66 67 68 69 71 71 72 73 73 74 75 76 77 78 79 80 80 80 80 80 80 80 80 80 80 80 80 80 80 80 80 80 80 80 80 80 80 80 80 80 80 80 80 80 80 80 80 80 81 81 81 81 81 81 81 81 81 80 80 79 79 78 77 75 74 72 71 70 69 68 68 67 68 69 69 70
57 58 59 60 62 63 64 65 66 66 67 69 70 71 72 72 73 74 75 76 76 77 78 78 79 80 80 80 80 80 80 80 80 80 81 81 81 81 81 81 81 82 82 82 82 82 82 82 82 82 82 82 82 82 82 82 82 82 82 82 81 81 81 81 80 80 79 78 77 76 75 73 72 70 68 67 66 65 64 64 64 64 65 66 67 68
59 60 61 62 63 63 64 66 67 68 69 70 71 72 73 73 74 75 76 77 77 78 78 78 78 79 79 80 80 80 80 81 81 81 81 82 82 83 83 83 84 84 84 84 84 84 84 84 84 84 84 83 83 83 83 83 83 82 82 82 81 80 80 79 78 77 76 74 73 71 69 68 66 65 63 62 61 61 60 60 61 61 62 63 64 65
61 61 62 62 63 64 65 66 68 69 70 71 72 73 74 75 75 76 76 77 77 77 77 78 78 78 79 80 81 81 81 82 82 83 84 84 85 85 85 86 86 86 86 86 86 86 86 85 85 85 84 84 84 84 83 83 82 81 81 80 79 78 77 75 74 72 71 69 67 65 64 62 61 60 59 58 58 58 58 58 58 59 59 60 60 61
61 62 62 63 64 66 67 68 70 71 72 73 74 75 75 76 76 76 76 76 77 77 77 77 78 79 79 81 82 83 83 84 85 85 86 86 87 87 87 88 88 87 87 87 87 87 86 86 85 85 84 84 83 83 82 81 80 79 78 77 75 74 72 70 69 67 65 63 61 60 58 57 57 56 56 56 55 55 55 56 56 56 56 57 57 58
61 62 64 65 66 68 69 70 72 73 73 74 74 75 75 76 75 75 75 76 76 77 77 78 79 81 82 83 84 85 86 86 87 87 88 88 88 89 89 88 88 88 88 87 87 87 86 85 84 84 83 82 81 80 79 78 76 75 74 72 70 68 67 64 63 61 59 57 56 55 55 54 54 54 54 54 54 54 53 53 53 53 53 54 55 56
63 64 65 67 68 70 71 72 73 74 74 74 74 75 75 75 75 75 76 77 78 78 79 80 81 83 84 85 86 87 88 88 88 89 89 89 89 89 89 88 88 88 87 86 86 85 84 83 82 81 80 79 77 76 75 73 72 70 68 66 64 62 60 58 56 55 54 53 53 53 52 52 52 52 52 52 52 52 51 51 50 51 51 52 53 54
64 66 67 69 70 71 72 73 73 73 74 74 74 74 75 75 76 76 77 79 80 81 82 83 84 85 86 87 88 89 89 89 89 89 89 89 89 89 88 87 87 86 85 84 83 82 81 79 78 77 75 74 72 71 69 67 65 64 62 59 58 56 54 53 52 51 51 51 51 51 51 51 51 51 51 51 50 50 49 49 49 49 50 51 52 52
66 67 69 70 71 72 72 72 72 73 73 73 74 75 75 77 78 79 80 81 82 83 84 84 85 86 87 88 89 89 89 89 89 88 87 87 88 88 87 85 84 84 82 81 79 78 76 74 72 71 69 68 66 64 62 60 59 57 55 53 52 51 50 50 50 50 50 50 51 51 50 50 50 50 50 49 48 47 47 47 47 48 49 49 50 51
67 68 69 70 70 71 71 71 72 72 73 74 75 76 78 79 80 81 82 83 84 85 85 86 86 86 87 88 89 89 88 88 87 87 86 85 85 86 84 82 80 79 78 76 73 72 70 68 66 64 62 60 58 57 55 54 52 51 49 49 48 48 49 49 50 50 50 50 50 49 49 49 49 48 48 47 46 46 46 46 46 47 48 48 49 50
67 68 69 69 69 70 71 72 73 74 75 76 78 79 80 81 82 83 84 85 85 85 86 86 86 86 86 86 88 89 88 86 85 85 83 82 82 82 80 77 75 73 71 69 66 64 62 59 57 55 54 52 51 50 49 48 48 47 47 47 48 49 49 50 50 50 49 49 48 48 48 47 47 46 45 45 44 44 45 45 46 46 47 47 48 49
67 67 68 68 69 70 72 73 74 76 77 79 80 81 82 83 84 84 85 85 85 86 86 86 86 86 85 85 86 87 86 84 83 82 80 78 78 77 75 71 68 66 63 61 58 55 53 51 49 48 47 47 47 47 46 46 46 47 47 48 49 49 50 49 49 48 48 47 47 46 46 45 45 44 43 43 43 44 44 45 45 45 46 46 47 47
66 67 68 69 71 72 74 75 76 78 79 80 81 82 83 84 84 85 85 85 85 85 85 85 84 84 84 84 84 84 84 82 80 78 76 73 72 70 68 63 60 57 55 52 49 46 44 43 43 43 44 45 46 46 46 47 47 48 48 49 49 49 48 48 47 46 46 46 45 45 44 43 43 42 42 42 43 43 44 44 45 45 45 45 45 46
67 68 69 71 72 74 75 77 78 79 81 82 83 83 84 84 84 84 84 84 84 84 84 83 83 82 82 81 81 81 80 78 75 72 70 67 64 61 58 54 50 47 45 43 40 39 38 39 41 43 44 46 47 48 48 48 48 48 48 48 47 47 46 45 45 45 44 44 43 43 42 42 41 42 42 43 43 44 44 44 44 44 44 44 44 45
68 70 71 73 74 76 77 79 80 81 82 83 83 83 83 83 83 83 83 82 82 82 81 81 80 79 79 77 77 77 75 72 68 64 61 57 54 52 48 43 40 38 37 36 35 36 37 39 42 44 46 47 48 49 49 49 48 48 47 46 45 44 44 43 43 43 43 42 41 41 41 41 41 42 43 43 44 44 45 45 45 44 44 43 43 44
70 71 73 75 76 77 79 80 81 82 83 83 83 82 82 82 81 81 80 80 79 79 78 77 77 76 75 73 71 70 67 64 60 55 51 46 43 41 38 34 32 31 32 32 34 36 38 41 43 45 47 48 49 49 49 48 47 46 45 44 43 42 42 42 42 41 41 40 40 40 40 41 41 42 43 44 45 45 45 45 45 44 43 43 42 42
72 73 75 76 78 79 80 81 81 82 82 82 81 81 80 79 79 78 78 77 77 76 75 73 72 70 68 65 63 60 58 54 50 45 41 36 33 32 30 28 28 29 31 33 35 37 40 42 44 46 47 47 48 48 47 47 45 44 43 42 41 41 41 40 40 39 39 39 39 39 40 41 42 43 44 45 45 45 45 45 44 44 43 42 42 41
73 75 76 77 78 79 80 80 80 80 79 79 79 78 77 77 76 76 75 74 73 71 69 66 63 61 59 56 53 51 48 44 39 35 31 28 26 26 26 26 28 30 32 34 36 38 40 42 44 45 46 46 46 46 46 45 44 43 42 41 41 40 40 39 38 38 38 38 39 40 41 42 42 43 44 45 45 45 45 45 44 43 42 41 41 40
74 76 76 77 78 78 78 78 77 77 77 76 75 75 74 73 73 72 71 69 67 64 61 58 54 51 49 46 43 41 39 35 30 26 24 23 23 25 26 28 29 31 33 35 37 38 40 42 43 44 45 45 45 44 44 43 42 42 41 40 40 39 38 38 37 37 37 38 38 39 41 41 42 43 43 44 44 44 44 44 43 43 42 41 40 40
74 75 76 76 76 76 75 75 75 74 73 73 72 71 70 69 67 66 64 61 58 55 51 48 45 42 40 37 34 32 30 28 24 22 21 22 24 26 28 29 31 32 33 35 37 38 40 41 42 43 43 43 43 43 43 42 42 41 40 40 39 38 37 37 36 36 37 38 38 39 40 41 41 42 42 42 42 42 43 42 42 42 41 40 39 39
73 74 74 74 73 73 72 72 71 70 70 69 68 67 65 63 60 57 55 52 49 45 42 38 35 32 31 29 27 27 26 24 22 22 22 24 26 28 29 31 32 33 34 35 36 38 39 40 41 42 42 42 42 42 42 41 41 40 40 39 38 38 37 36 36 36 37 38 38 39 40 40 40 40 40 40 40 41 41 41 41 41 41 40 39 39
72 72 71 71 70 70 69 68 67 67 65 64 63 61 59 55 52 48 46 43 39 36 33 30 27 25 24 24 25 25 25 24 24 24 25 26 28 29 30 32 33 34 34 35 36 37 38 39 40 40 41 41 41 41 41 40 40 39 39 38 38 37 36 36 36 36 37 38 39 39 39 39 39 39 38 38 38 39 39 40 40 41 40 40 39 38
70 69 68 68 67 66 65 64 63 62 60 58 56 53 51 47 43 40 37 34 31 28 26 25 24 23 23 24 25 26 26 26 26 26 27 28 30 31 32 33 34 34 35 35 36 36 37 38 39 39 39 40 40 40 40 39 39 38 38 37 37 37 36 36 36 37 38 38 39 39 39 39 38 38 38 38 38 38 39 39 40 40 40 40 39 38
67 66 65 64 63 62 60 59 58 56 54 51 48 45 42 39 36 32 30 27 25 24 23 23 23 24 24 25 26 28 28 28 28 28 29 30 31 32 33 34 35 35 36 36 36 36 36 36 37 38 38 38 39 39 39 38 38 37 37 37 36 36 36 36 37 37 38 39 39 39 39 39 38 38 38 38 38 38 39 39 40 40 40 40 39 38
64 63 61 60 59 57 55 53 52 49 47 44 41 38 35 32 29 27 25 24 23 23 24 24 25 26 26 27 28 29 30 30 30 30 30 31 32 33 34 34 35 36 36 36 36 36 36 35 35 36 36 37 37 37 37 37 37 37 36 36 36 36 36 37 37 38 39 39 39 39 39 39 38 38 38 38 38 39 39 40 40 40 40 40 39 38
60 59 57 56 54 52 50 48 45 43 41 38 35 32 30 27 25 24 23 23 24 24 25 26 27 28 29 29 30 31 31 32 32 32 32 33 33 34 35 35 36 36 36 36 36 36 36 35 35 34 34 35 35 36 36 36 36 36 36 36 36 36 36 37 38 38 39 39 39 39 39 39 38 38 38 39 39 39 40 40 40 40 40 40 39 37
56 54 53 51 49 47 45 42 40 38 36 33 31 29 27 26 25 25 25 26 26 27 28 28 29 30 30 31 32 32 33 33 33 33 34 34 35 35 36 36 36 36 36 35 35 35 35 35 34 34 33 33 33 34 35 35 35 35 35 35 35 36 36 37 38 38 39 39 39 39 38 38 38 38 39 39 40 40 40 40 40 40 40 39 38 37
52 50 48 46 44 42 40 38 36 34 33 31 29 28 27 27 27 27 28 28 29 29 30 30 31 31 32 33 33 34 35 35 35 35 36 36 37 37 37 37 36 36 35 35 35 35 35 34 34 33 32 32 32 32 33 34 34 34 34 35 35 36 36 37 37 38 38 38 38 38 38 38 38 38 39 39 40 40 40 40 40 40 40 39 38 37
48 46 44 42 41 39 37 36 34 33 31 30 29 29 29 29 29 30 30 31 31 31 32 32 33 33 34 34 35 36 37 37 37 38 38 38 38 38 38 37 36 36 35 35 35 34 34 34 33 32 32 31 30 30 31 32 33 33 34 34 35 35 36 36 37 37 37 37 37 37 37 37 37 38 38 39 39 39 39 39 39 39 39 39 38 37
44 43 41 40 38 37 36 34 33 32 31 31 31 31 31 31 31 32 32 32 33 33 34 34 35 35 36 36 37 37 38 39 39 40 40 40 39 39 38 37 36 35 35 35 34 34 34 33 33 32 31 30 30 30 30 30 31 32 32 33 34 35 35 36 36 36 36 36 35 35 36 36 36 37 37 37 38 38 38 38 39 39 39 38 38 36
41 40 39 38 37 36 35 34 33 33 32 32 32 32 32 33 33 33 34 34 34 35 35 36 36 37 38 38 38 39 39 40 41 41 41 41 40 39 38 36 35 35 34 34 34 34 34 33 33 32 31 30 29 29 29 30 30 31 31 32 33 34 35 35 35 35 35 34 34 35 35 35 35 36 36 36 36 36 37 37 38 38 38 38 37 36
40 39 38 37 36 36 35 34 34 34 33 33 33 34 34 34 34 35 35 36 36 36 37 37 38 39 39 39 40 40 40 41 41 41 41 41 40 39 37 36 34 34 33 34 34 34 34 33 33 32 31 30 29 29 29 29 30 30 30 31 32 33 34 34 34 34 34 34 34 34 34 34 35 35 35 35 35 35 36 36 36 37 37 37 36 35
39 38 37 37 36 36 35 35 35 34 34 34 34 35 35 35 36 36 37 37 37 38 38 39 39 39 40 40 40 41 41 41 41 41 41 40 39 37 36 35 34 33 33 33 33 34 34 33 33 32 32 31 29 29 29 29 30 30 30 30 31 31 32 33 33 33 33 33 33 33 34 34 34 34 34 34 34 35 35 35 36 36 36 36 36 35
38 37 37 36 36 36 35 35 35 35 35 35 35 36 36 36 37 37 38 38 38 38 39 39 39 40 40 40 40 40 40 40 40 40 39 39 37 36 35 34 33 32 33 33 33 33 33 33 33 32 32 31 30 29 29 29 29 30 30 30 30 30 31 32 32 33 33 33 33 33 33 33 33 33 33 33 34 34 35 35 35 36 36 36 36 35
37 37 36 36 36 35 35 35 35 35 35 35 36 36 36 37 37 38 38 38 38 39 39 39 39 39 39 40 40 40 39 39 39 38 38 37 36 35 34 33 32 32 32 33 33 33 33 33 33 33 32 31 31 30 29 29 29 30 30 30 30 30 30 30 31 32 32 33 33 33 33 33 33 33 33 33 33 34 34 35 35 35 36 36 35 35
36 36 36 36 35 35 35 35 35 35 36 36 36 36 36 37 37 37 38 38 38 38 38 38 38 38 38 38 39 39 38 38 38 37 36 36 35 34 33 32 32 32 32 33 33 33 33 33 33 33 33 32 31 31 30 29 30 30 30 31 30 30 29 29 30 31 32 32 33 33 33 33 33 33 33 33 33 34 34 34 34 35 35 35 35 34
36 36 36 35 35 35 35 35 35 35 36 36 36 36 36 36 37 37 37 37 38 38 38 38 38 38 37 37 37 37 37 37 37 36 35 34 34 33 32 32 32 32 32 33 33 33 33 33 33 33 33 33 32 31 31 30 30 30 30 30 30 30 30 29 30 30 31 31 32 33 33 33 33 33 33 33 34 34 34 34 34 34 34 34 34 34
35 35 35 35 35 35 35 35 35 35 35 36 36 36 36 36 37 37 37 37 37 37 37 37 37 37 37 37 36 36 36 36 36 35 34 34 33 32 32 32 32 32 32 32 33 33 33 33 33 33 33 33 32 32 32 31 31 30 30 30 30 30 30 30 30 30 31 31 32 32 33 33 33 33 33 33 34 34 34 34 34 34 34 34 34 33
35 34 34 34 34 34 34 34 35 35 35 36 36 36 36 37 37 37 37 37 37 37 37 37 37 37 36 36 36 35 35 35 35 34 34 33 32 32 32 32 32 32 32 32 32 33 33 33 33 33 33 33 33 32 32 32 32 31 30 30 30 29 29 30 30 31 31 31 32 32 33 33 33 33 33 33 34 34 35 34 34 34 33 33 33 33
34 34 34 34 34 34 34 34 35 35 35 36 36 37 37 37 37 37 37 37 37 37 37 37 37 37 36 36 35 35 34 34 34 33 33 33 32 32 32 32 32 32 32 32 32 32 33 33 33 34 34 34 33 33 33 33 33 32 31 30 30 29 29 29 30 30 31 31 32 33 33 33 33 33 33 33 33 34 34 34 34 33 32 32 32 32
33 33 33 33 33 33 34 34 35 35 36 36 37 37 37 37 37 37 37 37 37 37 37 37 37 37 36 36 35 35 34 34 33 33 33 32 32 32 32 32 32 32 32 32 32 32 33 33 33 34 34 34 34 34 33 33 33 33 32 31 30 29 28 29 29 30 31 31 32 32 33 33 33 33 32 32 33 33 34 34 33 33 32 31 31 31
32 32 32 33 33 33 34 34 35 35 36 37 37 38 38 38 38 38 38 38 38 37 37 37 37 37 36 36 35 35 34 34 33 33 32 32 32 31 31 31 31 31 31 32 32 32 32 32 33 34 35 35 35 35 34 34 34 33 32 31 30 29 29 28 29 29 30 31 31 32 32 32 32 32 32 32 32 33 33 33 33 32 31 31 30 30
32 32 32 33 33 33 34 35 35 36 37 37 38 38 38 39 39 38 38 38 38 38 38 37 37 37 36 36 35 35 34 33 33 32 32 32 31 31 31 31 31 31 31 31 31 31 31 31 32 33 34 35 36 36 35 35 34 33 33 32 31 30 29 29 28 29 29 30 31 31 32 32 32 32 31 31 32 32 32 33 33 32 31 30 30 29
32 32 32 33 33 34 35 35 36 37 37 38 38 39 39 39 39 39 39 39 38 38 38 38 37 37 37 36 35 35 34 33 33 32 32 32 31 31 31 31 31 31 31 30 30 30 30 30 30 31 33 34 36 36 36 36 35 34 33 32 31 31 30 29 29 29 29 30 30 31 31 31 31 31 31 31 31 32 32 32 33 32 32 31 30 29
Wind_Direction
281 279 278 277 280 283 287 289 289 287 285 283 281 281 282 282 282 283 283 284 285 286 287 288 289 290 291 291 292 292 292 293 292 292 292 291 291 290 290 290 290 290 290 290 290 290 290 289 289 289 288 288 288 287 287 287 286 286 286 285 285 284 284 284 283 283 282 282 282 281 281 281 280 280 279 279 279 279 278 278 278 277 277 277 276 276
280 279 277 277 279 282 285 287 287 286 284 283 282 282 283 284 284 285 286 286 287 288 289 289 290 291 292 292 293 293 292 292 292 292 291 291 291 291 291 291 291 291 291 290 290 290 290 289 289 289 288 288 288 287 287 287 286 286 285 285 285 284 284 283 283 283 282 282 282 281 281 281 280 280 280 280 279 279 279 279 278 278 278 277 277 276
280 278 277 277 279 281 283 284 284 283 283 283 283 284 284 285 286 287 288 288 289 289 290 291 292 292 293 293 293 292 292 292 292 291 291 291 291 291 291 291 291 291 291 290 290 290 289 289 289 289 288 288 288 287 287 286 286 286 285 285 284 284 284 283 283 282 282 282 281 281 281 281 281 281 280 280 280 280 280 279 279 278 278 277 277 276
279 277 277 277 279 281 282 283 283 282 282 283 283 284 285 287 288 289 289 290 291 291 292 292 293 293 293 293 293 293 292 292 292 292 292 291 291 291 291 291 291 291 290 290 290 290 289 289 289 289 288 288 287 287 287 286 286 286 285 285 284 284 284 283 283 282 282 282 282 281 281 281 281 281 281 281 281 280 280 279 279 278 278 277 277 276
279 278 278 279 281 282 283 283 283 283 283 283 284 285 287 288 289 290 291 291 292 293 293 293 293 294 293 293 293 293 292 292 292 292 292 291 291 291 291 291 290 290 290 290 290 290 289 289 289 288 288 288 287 287 287 286 286 286 285 285 284 284 284 283 283 283 282 282 282 282 282 282 282 281 281 281 281 280 280 279 279 278 278 277 277 276
280 280 281 282 283 283 284 284 283 284 284 285 286 288 289 290 291 292 293 293 294 294 294 294 294 294 294 293 293 293 292 292 292 292 291 291 291 291 291 290 290 290 290 290 290 289 289 289 289 288 288 288 287 287 287 286 286 286 285 285 284 284 284 283 283 283 283 283 282 282 282 282 282 282 281 281 280 280 279 279 278 278 278 277 277 276
282 282 282 283 283 284 284 284 285 285 287 288 289 290 291 292 293 294 294 295 295 295 295 294 294 294 293 293 292 292 292 292 291 291 291 291 291 291 291 290 290 290 290 290 290 289 289 289 289 288 288 288 287 287 287 286 286 285 285 285 284 284 284 284 283 283 283 283 283 283 282 282 282 281 281 280 280 279 279 279 278 278 278 277 277 276
283 283 283 283 284 285 285 286 287 288 290 291 292 293 293 294 294 294 295 295 295 295 294 294 293 293 293 292 292 291 291 291 291 291 291 291 291 291 291 291 291 290 290 290 290 290 289 289 289 288 288 288 287 287 287 286 286 285 285 285 285 284 284 284 284 284 284 283 283 283 282 282 281 281 280 280 279 279 279 279 279 279 278 278 278 277
284 284 284 284 285 287 288 289 290 291 292 293 293 294 294 294 294 294 294 294 294 294 293 293 292 292 292 291 291 291 291 291 291 291 291 291 291 291 291 291 291 291 290 290 290 290 289 289 289 289 288 288 287 287 287 286 286 286 285 285 285 285 285 284 284 284 284 283 283 282 282 281 281 280 280 280 279 279 279 279 279 279 279 279 279 279
284 284 285 286 288 289 291 292 293 293 294 294 294 294 294 294 294 294 294 293 293 293 292 292 292 292 291 291 291 291 291 291 291 291 291 291 292 291 291 291 291 291 291 290 290 290 290 289 289 289 288 288 288 287 287 286 286 286 286 285 285 285 285 284 284 284 283 283 282 282 281 281 280 280 280 280 280 280 280 281 281 281 281 281 281 281
285 286 288 290 291 292 293 294 294 294 294 294 294 294 294 294 294 293 293 293 292 292 292 292 291 291 291 291 291 291 292 292 292 292 292 292 292 292 291 291 291 291 291 290 290 290 290 289 289 289 288 288 288 287 287 287 286 286 286 286 285 285 285 284 284 283 283 282 282 281 281 281 281 281 281 281 281 281 282 282 282 282 282 282 282 282
287 290 292 293 294 295 295 295 294 294 294 294 294 294 293 293 293 293 292 292 292 292 292 292 292 292 292 292 292 292 292 292 292 292 292 292 292 292 292 291 291 291 291 290 290 290 290 289 289 289 289 288 288 287 287 287 286 286 286 285 285 284 284 283 283 283 282 282 281 281 281 282 282 282 282 283 283 283 283 283 283 283 283 284 284 284
291 293 295 295 295 295 295 295 294 294 294 293 293 293 293 293 293 292 292 292 292 292 293 293 293 293 293 293 293 293 293 293 293 293 293 292 292 292 291 291 291 291 291 290 290 290 290 290 289 289 289 288 288 287 287 286 286 285 285 285 284 284 283 283 282 282 282 282 282 282 283 283 283 284 284 284 284 284 284 284 284 284 285 285 285 285
294 295 296 296 295 295 294 294 294 293 293 293 293 293 293 293 293 293 293 293 293 293 293 294 293 293 293 293 293 293 293 293 293 292 292 292 292 291 291 291 291 291 291 291 291 290 290 290 290 289 289 288 287 287 286 286 285 285 284 284 283 283 283 283 283 283 283 284 284 284 285 285 285 285 285 285 284 284 284 284 285 285 286 286 286 287
296 296 296 295 295 294 294 293 293 293 293 293 293 293 293 294 294 294 294 294 294 294 294 294 294 294 293 293 293 293 293 292 292 292 292 292 292 292 291 291 291 291 291 291 291 291 290 290 289 289 288 287 287 286 285 285 284 284 284 284 284 284 284 284 285 285 286 286 286 286 286 286 285 285 285 285 285 285 285 285 286 286 287 287 287 288
296 296 295 295 294 294 293 293 293 293 294 294 294 294 295 295 295 295 295 295 295 295 294 294 294 294 293 293 293 292 292 292 292 292 292 292 292 292 292 292 292 292 292 291 291 291 290 290 289 288 287 286 286 285 285 284 284 284 284 285 285 286 286 287 287 288 288 288 287 287 286 286 286 286 286 286 285 285 286 286 287 287 288 288 288 289
295 295 294 294 294 294 294 294 294 295 295 295 295 295 295 295 295 295 295 295 295 295 294 294 294 293 293 293 292 292 292 292 292 292 292 292 292 292 292 292 292 292 292 291 291 290 290 289 288 287 286 285 285 285 285 285 285 286 287 287 288 289 289 290 290 289 289 288 288 287 287 286 286 286 286 286 286 286 286 287 288 288 289 289 289 289
295 294 294 294 294 295 295 295 296 296 296 296 296 296 296 296 295 295 295 295 295 295 294 294 294 293 293 293 292 292 292 292 292 292 293 292 292 292 292 292 292 292 292 291 290 290 289 288 287 286 286 285 285 286 286 287 288 289 290 290 291 291 291 291 290 289 289 288 287 287 287 287 287 286 286 286 286 287 287 288 288 289 289 289 290 290
294 294 295 295 296 296 296 296 297 297 296 296 296 296 296 296 296 295 295 295 295 295 294 294 294 294 293 293 292 292 292 293 293 293 293 293 293 292 292 293 293 292 291 290 290 289 288 288 287 287 287 287 287 288 289 290 291 291 292 292 292 291 291 290 290 289 288 288 288 288 287 287 287 286 286 286 287 287 288 288 289 289 290 290 290 290
295 295 296 296 297 297 297 297 297 297 297 296 296 296 296 296 296 296 295 295 295 295 295 294 294 294 294 293 293 293 293 293 293 294 294 293 293 293 292 293 292 292 291 290 289 289 289 289 289 289 289 289 290 291 291 292 292 292 292 292 292 291 290 290 289 289 288 289 289 288 288 287 287 287 287 287 287 288 288 289 289 289 290 290 290 290
296 297 297 297 297 297 297 297 297 297 297 296 296 296 296 296 296 296 296 296 295 295 295 295 295 294 294 294 293 293 293 294 294 294 294 294 294 293 293 293 292 292 291 290 290 291 291 291 291 291 291 291 292 292 292 293 293 292 292 292 291 291 290 289 289 289 289 290 289 289 289 288 288 288 288 288 288 288 289 289 289 289 290 290 290 290
298 298 298 298 298 298 298 297 297 297 297 297 297 297 297 297 297 297 296 296 296 296 296 295 295 295 294 294 294 294 294 295 295 295 295 295 294 293 293 293 293 292 291 292 293 294 294 293 293 292 292 292 293 293 293 293 293 293 293 292 291 291 290 290 290 291 291 290 290 290 289 289 289 289 289 289 289 289 289 289 289 289 289 290 290 290
298 298 298 298 298 298 298 298 298 297 297 297 297 297 298 298 298 297 297 297 297 296 296 296 296 295 295 295 295 295 295 296 296 296 296 296 295 294 294 294 294 294 294 294 295 295 295 294 293 293 293 293 294 294 294 294 294 294 293 292 292 292 291 292 292 292 292 291 291 291 291 290 291 291 291 291 290 290 290 290 290 290 290 290 290 290
299 299 299 299 299 298 298 298 298 298 298 298 298 298 298 299 298 298 298 297 297 297 297 297 297 296 296 296 296 296 296 297 298 298 298 297 296 295 295 296 296 296 296 296 296 296 295 295 294 294 295 295 295 295 295 295 295 295 294 293 293 293 293 293 293 293 293 292 292 292 292 292 292 292 292 292 291 291 291 291 290 290 290 290 290 291
300 299 299 299 299 299 299 299 299 299 299 299 299 299 300 299 299 299 298 298 298 298 298 298 298 297 297 297 297 297 297 298 299 300 300 299 298 296 296 297 297 297 297 297 297 297 297 296 296 296 297 297 297 297 297 296 296 296 295 295 294 294 294 294 294 293 293 293 293 293 293 293 293 293 293 292 292 292 291 291 291 290 290 290 291 291
300 300 300 300 300 300 300 300 300 300 300 300 300 300 300 300 300 300 299 299 299 299 299 299 298 298 297 297 297 298 298 300 301 302 302 301 299 298 298 298 298 298 298 299 299 299 299 299 299 299 299 299 299 298 298 297 297 296 296 296 295 295 295 295 294 294 294 293 294 294 294 294 294 294 294 293 293 293 292 292 292 291 291 291 292 292
300 300 300 300 300 300 300 301 301 301 301 301 301 301 301 301 301 301 301 300 300 300 300 300 299 299 299 299 299 299 301 302 304 305 304 302 300 299 299 299 300 300 300 301 301 302 302 301 301 301 301 300 299 299 298 297 297 297 297 296 296 296 296 295 295 295 294 295 295 295 295 295 295 295 295 295 294 294 294 293 293 293 293 293 293 293
301 301 301 301 301 302 302 302 302 302 302 302 302 302 302 302 302 302 302 302 302 302 302 301 301 301 301 302 302 303 304 305 306 306 305 303 301 300 300 300 301 301 302 302 303 304 304 303 303 302 301 300 299 298 298 297 297 297 297 297 296 296 296 296 296 296 296 296 297 297 297 297 297 296 296 296 295 295 295 295 294 294 294 295 295 295
302 302 302 302 303 303 303 303 303 304 304 304 304 304 303 304 304 304 303 303 304 305 304 304 305 305 305 305 306 305 306 306 306 306 305 303 302 301 301 301 302 302 303 304 305 306 306 305 304 303 301 300 299 298 297 297 296 296 296 296 296 296 296 296 297 297 298 299 299 299 299 299 298 298 297 297 296 296 295 295 295 296 296 296 296 296
303 303 303 304 304 304 304 305 305 305 305 305 305 305 305 305 305 305 305 305 307 307 307 308 308 308 308 307 307 306 305 305 305 305 304 303 302 302 302 302 303 303 304 305 306 306 306 305 304 303 301 299 298 297 296 295 295 295 295 295 295 296 296 297 298 299 300 301 302 302 302 301 300 300 299 298 297 297 297 296 296 296 296 296 297 297
304 305 305 305 305 305 305 306 306 306 306 306 307 307 307 307 307 307 307 308 309 309 309 309 309 308 308 307 306 305 305 305 304 304 303 303 302 303 303 303 304 304 305 306 306 307 306 305 303 302 300 299 297 296 295 294 294 294 294 294 295 296 297 299 300 302 303 303 304 304 303 303 302 301 301 300 299 299 298 297 297 297 296 296 296 296
306 306 306 306 306 306 307 307 307 308 308 308 308 308 308 308 308 309 309 310 310 310 309 309 308 307 307 306 305 305 304 304 304 303 303 303 303 303 303 304 304 305 306 306 307 307 307 305 303 301 299 297 296 294 294 293 293 293 294 294 295 297 299 301 302 304 305 305 305 305 305 304 303 303 302 302 301 300 299 299 298 297 297 296 296 296
307 307 307 307 307 308 308 309 309 309 309 309 309 308 309 309 309 309 309 309 309 309 308 308 307 307 306 306 305 304 304 303 303 303 303 303 303 303 304 304 304 305 305 306 306 306 306 305 303 301 298 296 294 293 293 292 293 293 294 295 296 298 300 302 304 305 305 306 306 305 305 305 304 304 303 303 302 301 301 300 299 298 297 297 296 296
307 308 308 308 309 309 310 310 310 309 309 309 309 309 309 309 309 308 308 308 308 308 307 307 307 306 306 305 305 304 304 303 303 303 303 303 303 304 304 304 304 304 305 305 306 306 306 305 303 301 298 296 294 292 292 292 292 293 294 295 297 299 301 302 304 305 305 306 306 305 305 305 305 305 305 304 303 303 302 301 300 299 298 297 297 296
308 309 309 310 310 310 310 310 310 310 309 309 309 308 308 308 308 308 308 308 308 307 307 306 306 306 305 305 305 304 304 303 303 303 303 303 303 304 304 304 304 304 304 304 305 305 305 304 303 301 299 296 294 292 291 291 292 293 294 296 298 299 301 302 303 304 305 305 305 305 305 305 305 305 305 305 304 304 303 302 301 300 299 298 297 297
309 310 310 310 310 310 310 309 309 309 308 308 308 308 308 308 308 308 308 307 307 307 307 306 306 305 305 305 304 304 304 304 303 303 303 303 303 304 304 304 303 303 303 304 304 305 305 305 304 302 300 297 295 293 292 291 292 293 294 296 298 299 300 301 302 303 304 304 304 304 304 305 305 305 305 305 305 304 304 303 301 300 299 299 298 297
310 310 310 310 310 310 309 309 308 308 308 307 307 307 307 308 308 308 308 308 307 307 307 306 306 305 305 305 304 304 304 304 304 303 303 303 303 304 304 303 303 303 303 304 305 305 306 306 305 303 301 299 297 295 293 292 292 293 294 296 297 298 299 301 302 302 303 303 303 304 304 304 305 306 306 306 305 305 304 303 302 301 300 299 299 298
311 311 310 310 309 309 308 308 308 307 307 307 307 308 308 308 308 308 308 308 308 308 307 307 307 306 306 305 305 304 304 304 304 303 303 303 303 304 303 303 303 303 304 305 306 307 307 307 306 305 303 301 299 297 296 294 293 294 295 296 297 298 299 300 301 302 302 302 303 303 304 304 305 306 306 306 305 305 304 303 302 301 301 300 300 299
311 310 310 309 309 308 308 308 308 307 308 308 308 308 308 309 309 309 308 309 309 308 308 308 307 307 306 306 305 305 304 304 304 304 304 304 304 304 304 303 303 304 305 306 307 308 309 309 308 307 306 304 302 300 298 297 296 296 296 297 298 299 300 300 301 301 302 302 302 303 304 305 306 306 307 307 306 306 305 304 303 302 302 301 300 300
310 310 309 309 308 308 308 308 308 308 308 308 309 309 309 309 310 310 310 310 309 309 309 308 308 307 307 306 306 306 305 305 305 305 305 304 304 304 304 304 304 305 306 308 309 310 311 311 310 309 307 306 305 303 301 300 299 298 298 298 299 300 300 300 301 301 302 302 303 304 304 306 307 308 308 308 308 307 306 305 304 303 303 302 301 301
310 310 309 309 309 309 308 308 309 309 309 310 310 310 311 311 311 311 311 311 311 310 310 309 309 308 308 307 307 307 306 306 306 305 305 305 305 305 304 304 305 306 308 309 311 312 312 312 312 310 309 308 306 305 304 303 301 301 300 300 301 301 301 301 301 302 302 303 304 305 306 308 309 310 310 310 309 308 307 306 305 304 303 302 302 301
310 310 309 309 309 309 309 309 310 310 310 311 311 312 312 313 313 313 313 312 312 311 311 311 310 310 309 309 308 308 307 307 306 306 305 305 305 305 305 305 306 308 309 311 313 314 314 314 313 312 311 310 308 307 306 304 303 303 302 302 302 302 301 301 301 302 303 304 305 306 308 310 311 312 312 312 311 310 309 307 306 304 303 302 302 301
310 310 310 310 310 310 310 311 311 312 312 313 313 314 314 314 314 314 314 313 313 312 312 312 311 311 310 310 309 309 308 307 307 306 306 305 305 305 305 306 308 309 311 313 314 315 315 315 314 313 312 311 310 308 307 306 305 304 303 303 302 302 301 301 301 302 303 305 306 308 310 312 313 314 314 314 314 312 311 309 307 305 304 303 303 303
311 311 311 311 311 311 312 312 313 314 314 315 315 315 316 316 315 315 315 314 314 313 313 312 312 311 311 310 310 309 309 308 307 306 306 305 305 305 306 308 309 311 312 314 315 316 316 316 315 314 313 312 311 309 308 307 306 305 304 303 303 303 303 302 302 303 304 306 308 310 312 313 314 315 316 316 316 315 313 311 309 307 306 305 304 304
312 312 312 312 313 313 314 315 315 316 316 317 317 317 317 317 316 316 315 315 314 314 313 313 312 312 311 311 310 310 309 308 308 307 306 306 306 307 308 309 310 312 313 314 316 316 316 316 315 314 313 312 311 310 309 308 306 305 304 303 303 303 304 304 304 305 307 309 310 312 313 314 315 316 317 317 317 317 316 314 312 311 309 308 307 306
313 313 313 314 314 315 316 317 317 318 318 318 318 318 318 317 317 316 316 315 315 314 314 313 313 312 312 311 311 310 310 309 309 308 308 307 307 308 309 310 311 312 314 315 316 317 317 317 316 315 314 312 311 310 309 308 307 305 304 304 304 304 304 305 306 308 310 311 313 314 314 315 316 317 318 318 318 318 317 316 315 313 312 311 310 308
314 314 315 316 316 317 318 319 319 319 319 319 319 319 319 318 318 317 317 316 316 315 314 314 313 313 312 312 312 311 311 311 310 309 309 309 309 309 309 310 311 313 314 315 316 317 317 317 317 316 314 313 312 311 310 308 307 306 305 304 304 305 306 307 309 310 312 313 314 314 314 315 316 317 318 318 318 318 317 317 316 315 315 313 311 310
315 316 317 317 318 318 319 320 320 320 320 320 320 320 320 320 319 318 318 317 317 316 315 315 314 314 313 313 313 312 312 312 311 310 310 309 309 309 310 310 311 313 314 315 316 317 318 318 317 316 315 313 312 311 310 309 307 306 306 306 306 307 308 309 311 312 313 314 314 314 314 314 315 316 317 318 318 318 317 317 317 317 316 314 312 310
316 317 317 318 319 319 319 320 320 320 321 321 321 321 321 321 320 320 319 318 318 317 316 316 315 315 314 314 313 313 312 312 312 311 310 310 310 309 310 310 311 312 313 315 316 317 317 317 317 316 315 314 312 311 310 308 307 306 306 307 307 308 310 311 312 313 314 314 314 314 314 314 314 315 316 317 317 317 317 317 317 317 316 315 313 310
317 317 318 318 319 319 319 320 320 320 321 321 321 321 321 321 321 321 320 319 319 318 317 316 316 315 315 314 314 313 313 313 312 311 311 310 310 309 309 310 310 311 312 314 315 316 316 317 317 316 315 314 312 311 310 308 307 306 307 308 309 310 311 312 313 313 314 314 314 313 313 314 314 315 316 317 317 317 317 317 316 316 315 314 312 310
317 317 317 318 318 319 319 319 320 320 320 320 321 321 321 321 321 321 321 320 319 318 318 317 316 316 315 314 314 314 313 313 312 311 311 310 309 309 309 309 309 310 311 312 313 314 314 315 316 316 315 314 313 312 310 309 308 308 308 309 311 311 312 312 313 313 314 314 314 314 314 314 315 316 316 317 317 317 317 316 316 315 314 313 312 310